Tracking 23726 objects as of 22-Sep-2021
HD Live streaming from Space Station
objects crossing your sky now

STARLINK-1134

Track STARLINK-1134 now!
10-day predictions
STARLINK-1134 is classified as:


NORAD ID: 45048
Int'l Code: 2020-006E
Perigee: 553.4 km
Apogee: 555.3 km
Inclination: 53.1 °
Period: 95.6 minutes
Semi major axis: 6925 km
RCS: Unknown
Launch date: January 29, 2020
Source: United States (US)
Launch site: AIR FORCE EASTERN TEST RANGE (AFETR)
aabbcc
Your satellite tracking list
Your tracking list is empty




NASA's NSSDC Master Catalog

Two Line Element Set (TLE):
1 45048U 20006E   21265.37051249 -.00001632  00000-0 -90688-4 0  9995
2 45048  53.0584  40.9215 0001345 100.3046 259.8094 15.06390895 90884
Source of the keplerian elements: AFSPC